Charles City, IA

8:19 AM CDT on May 23, 2017 (GMT -0500)
Charles City Municipal

Weather History for KCCY - March, 2012

Change the Weather History Date:

Thursday, March 29, 2012

  Actual Average Record
Temperature  
Mean Temperature 55 °F -  
Max Temperature 68 °F 48 °F 85 °F (1986)
Min Temperature 42 °F 30 °F 1 °F (1969)
Degree Days  
Heating Degree Days 10    
Growing Degree Days 5 (Base 50)    
Moisture  
Dew Point 35 °F    
Average Humidity 48    
Maximum Humidity 70    
Minimum Humidity 24    
Precipitation  
Precipitation 0.00 in - - ()
Sea Level Pressure  
Sea Level Pressure 29.97 in    
Wind  
Wind Speed 12 mph (ESE)    
Max Wind Speed 23 mph    
Max Gust Speed 29 mph    
Visibility 10 miles    
Events      
Averages and records for this station are not official NWS values.
T = Trace of Precipitation, MM = Missing Value Source: NWS Daily Summary

Daily Weather History Graph

Daily Weather History Graph

Search for Another Location

Airport or City:

Trip Planner

Search our weather history database for the weather conditions in past years. The results will help you decide how hot, cold, wet, or windy it might be!

Date:

Astronomy

Mar. 29, 2012 Rise Set
Actual Time 6:56 AM CDT 7:33 PM CDT
Civil Twilight 6:28 AM CDT 8:02 PM CDT
Nautical Twilight 5:54 AM CDT 8:36 PM CDT
Astronomical Twilight 5:19 AM CDT 9:11 PM CDT
Moon 10:58 AM CDT (3/29) 1:33 AM CDT (3/29)
Length of Visible Light 13h 34m
Length of Day
12h 37m
Waxing Crescent, 39% of the Moon is Illuminated
Mar 29
Waxing Crescent
Mar 30
First Quarter
Apr 6
Full
Apr 13
Last Quarter
Apr 21
New

Hourly Weather History & Observations

Time (CDT) Temp. Windchill Dew Point Humidity Pressure Visibility Wind Dir Wind Speed Gust Speed Precip Events Conditions
12:15 AM 50.0 °F - 35.6 °F 58% 30.04 in 10.0 mi NE 10.4 mph - N/A   Clear
12:35 AM 50.0 °F - 35.6 °F 58% 30.04 in 10.0 mi ENE 8.1 mph - N/A   Clear
12:55 AM 50.0 °F - 35.6 °F 58% 30.03 in 10.0 mi ENE 8.1 mph - N/A   Clear
1:15 AM 50.0 °F - 35.6 °F 58% 30.03 in 10.0 mi ENE 8.1 mph - N/A   Clear
1:35 AM 48.2 °F - 35.6 °F 62% 30.02 in 10.0 mi ENE 9.2 mph - N/A   Clear
1:55 AM 48.2 °F - 35.6 °F 62% 30.02 in 10.0 mi ENE 6.9 mph - N/A   Clear
2:15 AM 48.2 °F - 35.6 °F 62% 30.02 in 10.0 mi ENE 8.1 mph - N/A   Clear
2:35 AM 48.2 °F - 33.8 °F 58% 30.02 in 10.0 mi East 6.9 mph - N/A   Clear
2:55 AM 46.4 °F 42.9 °F 33.8 °F 62% 30.02 in 10.0 mi East 6.9 mph - N/A   Clear
3:15 AM 46.4 °F 41.5 °F 33.8 °F 62% 30.02 in 10.0 mi East 10.4 mph - N/A   Clear
3:35 AM 46.4 °F 41.5 °F 33.8 °F 62% 30.03 in 10.0 mi East 10.4 mph - N/A   Clear
3:55 AM 46.4 °F 40.7 °F 33.8 °F 62% 30.01 in 10.0 mi ENE 12.7 mph - N/A   Clear
4:15 AM 46.4 °F 40.7 °F 33.8 °F 62% 30.02 in 10.0 mi East 12.7 mph - N/A   Clear
4:35 AM 46.4 °F 42.4 °F 33.8 °F 62% 30.03 in 10.0 mi East 8.1 mph - N/A   Clear
4:55 AM 46.4 °F 41.9 °F 33.8 °F 62% 30.04 in 10.0 mi East 9.2 mph - N/A   Clear
5:15 AM 44.6 °F 40.7 °F 33.8 °F 66% 30.04 in 10.0 mi East 6.9 mph - N/A   Clear
5:35 AM 44.6 °F 41.4 °F 33.8 °F 66% 30.05 in 10.0 mi East 5.8 mph - N/A   Clear
5:55 AM 42.8 °F 39.3 °F 33.8 °F 70% 30.06 in 10.0 mi East 5.8 mph - N/A   Clear
6:15 AM 44.6 °F 40.7 °F 33.8 °F 66% 30.06 in 10.0 mi East 6.9 mph - N/A   Clear
6:35 AM 42.8 °F 38.0 °F 33.8 °F 70% 30.06 in 10.0 mi East 8.1 mph - N/A   Clear
6:55 AM 42.8 °F 37.5 °F 33.8 °F 70% 30.06 in 10.0 mi East 9.2 mph - N/A   Clear
7:15 AM 44.6 °F 38.8 °F 33.8 °F 66% 30.06 in 10.0 mi East 11.5 mph - N/A   Clear
7:35 AM 44.6 °F 39.7 °F 33.8 °F 66% 30.06 in 10.0 mi East 9.2 mph - N/A   Clear
7:55 AM 44.6 °F 38.8 °F 33.8 °F 66% 30.06 in 10.0 mi East 11.5 mph - N/A   Clear
8:15 AM 46.4 °F 41.1 °F 35.6 °F 66% 30.07 in 10.0 mi ESE 11.5 mph - N/A   Clear
8:35 AM 48.2 °F - 35.6 °F 62% 30.07 in 10.0 mi East 13.8 mph - N/A   Clear
8:55 AM 48.2 °F - 35.6 °F 62% 30.06 in 10.0 mi ESE 12.7 mph - N/A   Clear
9:15 AM 51.8 °F - 37.4 °F 58% 30.05 in 10.0 mi ESE 17.3 mph - N/A   Clear
9:35 AM 51.8 °F - 37.4 °F 58% 30.05 in 10.0 mi ESE 17.3 mph - N/A   Clear
10:35 AM 55.4 °F - 37.4 °F 51% 30.03 in 10.0 mi ESE 16.1 mph - N/A   Clear
10:55 AM 57.2 °F - 37.4 °F 48% 30.02 in 10.0 mi SE 18.4 mph 23.0 mph N/A   Clear
11:15 AM 57.2 °F - 35.6 °F 44% 30.01 in 10.0 mi SE 19.6 mph 23.0 mph N/A   Clear
11:35 AM 59.0 °F - 37.4 °F 45% 30.00 in 10.0 mi ESE 18.4 mph 23.0 mph N/A   Clear
11:55 AM 60.8 °F - 35.6 °F 39% 29.99 in 10.0 mi SE 18.4 mph 25.3 mph N/A   Clear
12:15 PM 62.6 °F - 35.6 °F 37% 29.98 in 10.0 mi SE 19.6 mph 26.5 mph N/A   Clear
12:35 PM 62.6 °F - 35.6 °F 37% 29.97 in 10.0 mi SE 20.7 mph 25.3 mph N/A   Clear
12:55 PM 62.6 °F - 35.6 °F 37% 29.96 in 10.0 mi SE 23.0 mph - N/A   Clear
1:15 PM 62.6 °F - 35.6 °F 37% 29.95 in 10.0 mi SE 20.7 mph - N/A   Clear
1:35 PM 64.4 °F - 35.6 °F 34% 29.95 in 10.0 mi SE 18.4 mph 25.3 mph N/A   Clear
1:55 PM 66.2 °F - 35.6 °F 32% 29.94 in 10.0 mi ESE 18.4 mph 25.3 mph N/A   Clear
2:15 PM 66.2 °F - 33.8 °F 30% 29.93 in 10.0 mi SE 18.4 mph 26.5 mph N/A   Clear
2:35 PM 66.2 °F - 33.8 °F 30% 29.92 in 10.0 mi ESE 18.4 mph 25.3 mph N/A   Clear
2:55 PM 68.0 °F - 33.8 °F 28% 29.91 in 10.0 mi ESE 20.7 mph 27.6 mph N/A   Clear
3:15 PM 68.0 °F - 33.8 °F 28% 29.91 in 10.0 mi ESE 21.9 mph 26.5 mph N/A   Clear
3:35 PM 68.0 °F - 32.0 °F 26% 29.90 in 10.0 mi SE 21.9 mph 26.5 mph N/A   Clear
3:55 PM 68.0 °F - 30.2 °F 24% 29.90 in 10.0 mi ESE 18.4 mph 26.5 mph N/A   Clear
4:15 PM 68.0 °F - 30.2 °F 24% 29.88 in 10.0 mi SE 23.0 mph - N/A   Clear
4:35 PM 68.0 °F - 30.2 °F 24% 29.88 in 10.0 mi SE 20.7 mph 28.8 mph N/A   Clear
4:55 PM 66.2 °F - 30.2 °F 26% 29.88 in 10.0 mi SE 20.7 mph 25.3 mph N/A   Clear
5:15 PM 66.2 °F - 32.0 °F 28% 29.88 in 7.0 mi ESE 17.3 mph 25.3 mph N/A   Clear
5:35 PM 66.2 °F - 32.0 °F 28% 29.88 in 10.0 mi ESE 20.7 mph 26.5 mph N/A   Clear
5:55 PM 64.4 °F - 33.8 °F 32% 29.88 in 10.0 mi ESE 17.3 mph - N/A   Scattered Clouds
6:15 PM 64.4 °F - 33.8 °F 32% 29.87 in 10.0 mi ESE 17.3 mph 24.2 mph N/A   Mostly Cloudy
6:35 PM 64.4 °F - 33.8 °F 32% 29.87 in 10.0 mi ESE 12.7 mph - N/A   Mostly Cloudy
6:55 PM 62.6 °F - 33.8 °F 34% 29.86 in 10.0 mi ESE 16.1 mph 20.7 mph N/A   Overcast
7:15 PM 62.6 °F - 33.8 °F 34% 29.86 in 10.0 mi ESE 15.0 mph 23.0 mph N/A   Overcast
7:35 PM 62.6 °F - 33.8 °F 34% 29.86 in 10.0 mi SE 16.1 mph - N/A   Overcast
7:55 PM 60.8 °F - 35.6 °F 39% 29.85 in 10.0 mi ESE 16.1 mph 21.9 mph N/A   Overcast
8:15 PM 60.8 °F - 35.6 °F 39% 29.85 in 10.0 mi ESE 13.8 mph 21.9 mph N/A   Overcast
8:35 PM 60.8 °F - 35.6 °F 39% 29.83 in 10.0 mi ESE 17.3 mph - N/A   Overcast
8:55 PM 59.0 °F - 37.4 °F 45% 29.83 in 10.0 mi ESE 16.1 mph 24.2 mph N/A   Overcast
9:15 PM 59.0 °F - 37.4 °F 45% 29.82 in 10.0 mi ESE 19.6 mph 24.2 mph N/A   Overcast
9:35 PM 59.0 °F - 37.4 °F 45% 29.81 in 10.0 mi ESE 17.3 mph 24.2 mph N/A   Overcast
9:55 PM 59.0 °F - 37.4 °F 45% 29.82 in 10.0 mi SE 20.7 mph 26.5 mph N/A   Overcast
10:15 PM 57.2 °F - 37.4 °F 48% 29.81 in 10.0 mi ESE 19.6 mph 27.6 mph N/A   Overcast
10:35 PM 57.2 °F - 37.4 °F 48% 29.78 in 10.0 mi ESE 19.6 mph 24.2 mph N/A   Overcast
10:55 PM 57.2 °F - 39.2 °F 51% 29.78 in 10.0 mi SE 16.1 mph 23.0 mph N/A   Overcast
11:15 PM 57.2 °F - 39.2 °F 51% 29.81 in 10.0 mi SSE 18.4 mph 24.2 mph N/A   Overcast
11:35 PM 55.4 °F - 39.2 °F 54% 29.78 in 10.0 mi SE 18.4 mph 21.9 mph N/A   Overcast
11:55 PM 55.4 °F - 39.2 °F 54% 29.77 in 10.0 mi ESE 20.7 mph 26.5 mph N/A   Overcast